Weather History for KDLZ - October, 2012

Change the Weather History Date:

Friday, October 19, 2012

  Actual Average Record
Temperature  
Mean Temperature 50 °F -  
Max Temperature 55 °F 59 °F 86 °F (1953)
Min Temperature 44 °F 37 °F 23 °F (1976)
Degree Days  
Heating Degree Days 16    
Moisture  
Dew Point 41 °F    
Average Humidity 76    
Maximum Humidity 93    
Minimum Humidity 47    
Precipitation  
Precipitation 0.15 in - - ()
Sea Level Pressure  
Sea Level Pressure 29.64 in    
Wind  
Wind Speed 9 mph (South)    
Max Wind Speed 14 mph    
Max Gust Speed 22 mph    
Visibility 10 miles    
Events Rain    
Averages and records for this station are not official NWS values.
T = Trace of Precipitation, MM = Missing Value Source: NWS Daily Summary

Daily Weather History Graph

Daily Weather History Graph

Search for Another Location

Airport or City:

Trip Planner

Search our weather history database for the weather conditions in past years. The results will help you decide how hot, cold, wet, or windy it might be!

Date:

Astronomy

Oct. 19, 2012 Rise Set
Actual Time 7:48 AM EDT 6:45 PM EDT
Civil Twilight 7:20 AM EDT 7:13 PM EDT
Nautical Twilight 6:48 AM EDT 7:45 PM EDT
Astronomical Twilight 6:17 AM EDT 8:16 PM EDT
Moon 12:30 PM EDT (10/19) 10:22 PM EDT (10/19)
Length of Visible Light 11h 53m
Length of Day
10h 57m
Waxing Crescent, 23% of the Moon is Illuminated
Oct 19
Waxing Crescent
Oct 21
First Quarter
Oct 29
Full
Nov 6
Last Quarter
Nov 13
New

Hourly Weather History & Observations

Time (EDT) Temp. Windchill Dew Point Humidity Pressure Visibility Wind Dir Wind Speed Gust Speed Precip Events Conditions
12:16 AM 46.4 °F 41.9 °F 32.0 °F 57% 29.70 in 10.0 mi SE 9.2 mph - N/A   Scattered Clouds
12:36 AM 46.4 °F 42.4 °F 33.8 °F 62% 29.70 in 10.0 mi SE 8.1 mph - N/A   Scattered Clouds
12:56 AM 46.4 °F 41.9 °F 35.6 °F 66% 29.69 in 10.0 mi SE 9.2 mph - N/A   Scattered Clouds
1:16 AM 46.4 °F 41.5 °F 35.6 °F 66% 29.69 in 10.0 mi SSE 10.4 mph - N/A   Clear
1:36 AM 46.4 °F 41.1 °F 37.4 °F 71% 29.69 in 10.0 mi SE 11.5 mph - N/A   Scattered Clouds
1:56 AM 46.4 °F 41.5 °F 39.2 °F 76% 29.68 in 10.0 mi SE 10.4 mph - N/A   Mostly Cloudy
2:16 AM 46.4 °F 41.9 °F 41.0 °F 81% 29.67 in 10.0 mi SSE 9.2 mph - N/A   Overcast
2:36 AM 48.2 °F - 41.0 °F 76% 29.67 in 10.0 mi SSE 11.5 mph 17.3 mph N/A   Overcast
2:56 AM 48.2 °F - 41.0 °F 76% 29.67 in 10.0 mi SSE 11.5 mph - N/A   Overcast
3:16 AM 48.2 °F - 41.0 °F 76% 29.66 in 10.0 mi SSE 11.5 mph 17.3 mph N/A   Overcast
3:36 AM 48.2 °F - 42.8 °F 82% 29.65 in 10.0 mi SSE 11.5 mph - N/A   Overcast
3:56 AM 48.2 °F - 42.8 °F 82% 29.65 in 10.0 mi SSE 11.5 mph - N/A   Overcast
4:16 AM 48.2 °F - 42.8 °F 82% 29.65 in 10.0 mi SSE 13.8 mph 19.6 mph N/A   Overcast
4:36 AM 48.2 °F - 42.8 °F 82% 29.64 in 10.0 mi SSE 11.5 mph - N/A   Overcast
4:56 AM 48.2 °F - 42.8 °F 82% 29.63 in 10.0 mi SSE 10.4 mph - N/A   Mostly Cloudy
5:16 AM 46.4 °F 41.5 °F 41.0 °F 81% 29.63 in 10.0 mi SSE 10.4 mph - N/A   Scattered Clouds
5:36 AM 46.4 °F 41.9 °F 42.8 °F 87% 29.63 in 10.0 mi SSE 9.2 mph - N/A   Scattered Clouds
5:56 AM 46.4 °F 42.4 °F 42.8 °F 87% 29.63 in 10.0 mi SSE 8.1 mph - N/A   Scattered Clouds
6:16 AM 46.4 °F 41.9 °F 42.8 °F 87% 29.63 in 10.0 mi SSE 9.2 mph - N/A   Clear
6:36 AM 46.4 °F 42.9 °F 42.8 °F 87% 29.63 in 10.0 mi SSE 6.9 mph - N/A   Clear
6:56 AM 46.4 °F 42.4 °F 42.8 °F 87% 29.63 in 10.0 mi SSE 8.1 mph - N/A   Clear
7:16 AM 46.4 °F 41.9 °F 42.8 °F 87% 29.63 in 10.0 mi SSE 9.2 mph - N/A   Scattered Clouds
7:36 AM 48.2 °F - 42.8 °F 82% 29.63 in 10.0 mi SSE 10.4 mph - N/A   Scattered Clouds
7:56 AM 48.2 °F - 42.8 °F 82% 29.63 in 10.0 mi SSE 10.4 mph - N/A   Scattered Clouds
8:16 AM 50.0 °F - 41.0 °F 71% 29.64 in 10.0 mi South 6.9 mph - N/A   Mostly Cloudy
8:36 AM 50.0 °F - 41.0 °F 71% 29.64 in 10.0 mi South 6.9 mph - N/A   Overcast
8:57 AM 50.0 °F - 41.0 °F 71% 29.64 in 10.0 mi South 9.2 mph - N/A   Overcast
9:16 AM 50.0 °F - 41.0 °F 71% 29.63 in 10.0 mi South 10.4 mph - N/A   Overcast
9:36 AM 50.0 °F - 41.0 °F 71% 29.63 in 10.0 mi SSE 9.2 mph - N/A   Overcast
9:57 AM 50.0 °F - 41.0 °F 71% 29.63 in 10.0 mi SSE 12.7 mph - N/A   Overcast
10:16 AM 51.8 °F - 39.2 °F 62% 29.62 in 10.0 mi South 11.5 mph 17.3 mph N/A   Overcast
10:36 AM 51.8 °F - 39.2 °F 62% 29.62 in 10.0 mi SSE 10.4 mph - N/A   Overcast
10:57 AM 51.8 °F - 37.4 °F 58% 29.62 in 10.0 mi South 9.2 mph - N/A   Overcast
11:16 AM 51.8 °F - 37.4 °F 58% 29.62 in 10.0 mi South 11.5 mph 16.1 mph N/A   Overcast
11:36 AM 51.8 °F - 37.4 °F 58% 29.62 in 10.0 mi South 9.2 mph 16.1 mph N/A   Overcast
11:56 AM 51.8 °F - 37.4 °F 58% 29.62 in 10.0 mi South 9.2 mph - N/A   Overcast
12:16 PM 51.8 °F - 37.4 °F 58% 29.62 in 10.0 mi South 6.9 mph - N/A   Overcast
12:36 PM 53.6 °F - 37.4 °F 54% 29.61 in 10.0 mi South 9.2 mph - N/A   Overcast
12:56 PM 53.6 °F - 37.4 °F 54% 29.61 in 10.0 mi South 9.2 mph - N/A   Overcast
1:16 PM 53.6 °F - 37.4 °F 54% 29.60 in 10.0 mi SSW 8.1 mph - N/A   Overcast
1:36 PM 53.6 °F - 37.4 °F 54% 29.60 in 10.0 mi South 9.2 mph - N/A   Overcast
1:56 PM 53.6 °F - 35.6 °F 51% 29.59 in 10.0 mi South 5.8 mph - N/A   Overcast
2:16 PM 53.6 °F - 35.6 °F 51% 29.58 in 10.0 mi South 5.8 mph - N/A   Overcast
2:36 PM 53.6 °F - 35.6 °F 51% 29.58 in 10.0 mi South 5.8 mph - N/A   Overcast
2:56 PM 55.4 °F - 35.6 °F 47% 29.58 in 10.0 mi SSW 5.8 mph - N/A   Overcast
3:16 PM 53.6 °F - 35.6 °F 51% 29.58 in 10.0 mi SSW 10.4 mph 21.9 mph N/A Rain Rain
3:36 PM 51.8 °F - 39.2 °F 62% 29.59 in 10.0 mi SW 4.6 mph - N/A Rain Light Rain
3:56 PM 50.0 °F - 41.0 °F 71% 29.60 in 10.0 mi Calm Calm - N/A Rain Light Rain
4:16 PM 50.0 °F - 41.0 °F 71% 29.60 in 7.0 mi WSW 3.5 mph - 0.01 in Rain Rain
4:36 PM 48.2 °F - 42.8 °F 82% 29.62 in 7.0 mi Calm Calm - 0.04 in Rain Rain
4:56 PM 46.4 °F 41.9 °F 42.8 °F 87% 29.63 in 5.0 mi SW 9.2 mph - 0.06 in Rain Rain
5:16 PM 46.4 °F 41.5 °F 42.8 °F 87% 29.63 in 7.0 mi SW 10.4 mph - 0.01 in Rain Rain
5:37 PM 44.6 °F 41.4 °F 42.8 °F 93% 29.64 in 5.0 mi SSW 5.8 mph - 0.03 in Rain Light Rain
5:56 PM 44.6 °F 40.2 °F 42.8 °F 93% 29.64 in 7.0 mi SSW 8.1 mph - 0.05 in Rain Rain
6:16 PM 44.6 °F 40.7 °F 42.8 °F 93% 29.64 in 10.0 mi South 6.9 mph - 0.01 in Rain Rain
6:37 PM 44.6 °F 40.2 °F 42.8 °F 93% 29.65 in 7.0 mi SSW 8.1 mph - 0.03 in Rain Rain
6:56 PM 44.6 °F 41.4 °F 42.8 °F 93% 29.65 in 10.0 mi SSW 5.8 mph - 0.03 in   Drizzle
7:16 PM 44.6 °F 39.7 °F 42.8 °F 93% 29.65 in 10.0 mi SSW 9.2 mph - 0.01 in   Drizzle
7:37 PM 44.6 °F 40.7 °F 42.8 °F 93% 29.65 in 10.0 mi SSW 6.9 mph - 0.01 in   Drizzle
7:56 PM 44.6 °F 39.7 °F 42.8 °F 93% 29.66 in 10.0 mi SW 9.2 mph - 0.01 in   Drizzle
8:16 PM 44.6 °F 40.2 °F 42.8 °F 93% 29.66 in 7.0 mi SW 8.1 mph - N/A   Drizzle
8:36 PM 44.6 °F 39.7 °F 41.0 °F 87% 29.66 in 10.0 mi SSW 9.2 mph - N/A   Drizzle
8:56 PM 44.6 °F 40.7 °F 41.0 °F 87% 29.66 in 10.0 mi SSW 6.9 mph - N/A   Drizzle
9:16 PM 44.6 °F 40.2 °F 42.8 °F 93% 29.66 in 10.0 mi SSW 8.1 mph - N/A   Drizzle
9:36 PM 44.6 °F 38.8 °F 42.8 °F 93% 29.67 in 7.0 mi SSW 11.5 mph 16.1 mph N/A   Overcast
9:56 PM 44.6 °F 40.2 °F 42.8 °F 93% 29.68 in 10.0 mi SSW 8.1 mph - N/A   Overcast
10:16 PM 44.6 °F 38.8 °F 42.8 °F 93% 29.68 in 10.0 mi SSW 11.5 mph 17.3 mph N/A   Overcast
10:36 PM 44.6 °F 39.7 °F 42.8 °F 93% 29.68 in 10.0 mi SSW 9.2 mph 16.1 mph N/A   Overcast
10:56 PM 44.6 °F 39.7 °F 42.8 °F 93% 29.68 in 10.0 mi SW 9.2 mph - N/A   Overcast
11:16 PM 44.6 °F 40.2 °F 42.8 °F 93% 29.68 in 10.0 mi SSW 8.1 mph - N/A   Overcast
11:36 PM 44.6 °F 40.2 °F 42.8 °F 93% 29.68 in 10.0 mi SSW 8.1 mph - N/A   Overcast
11:56 PM 44.6 °F 40.2 °F 42.8 °F 93% 29.68 in 7.0 mi SSW 8.1 mph - N/A   Overcast